Simultaneous Nadir Overpasses (SNOs) Predictions

Prediction of SNOs between GOES-15 and METOP-B Satellite Orbit:

Table of predicted SNOs for the next 14.0 days since TLE Epoch: 11/4/2022
Index Date Time (GOES-15) GOES-15 Lat,Lon METOP-B Lat,Lon Distance(km) Time Diff (sec)
1 11/05/2022 05:59:33 0.25,-128.40 0.37,-127.74 74.67 80
2 11/06/2022 18:18:26 -0.24,-128.39 0.63,-132.31 446.00 80
3 11/07/2022 18:00:26 -0.24,-128.39 -0.47,-127.31 122.79 80
4 11/09/2022 06:19:26 0.24,-128.38 -0.55,-131.90 401.44 80
5 11/10/2022 05:56:07 0.24,-128.37 0.56,-126.91 166.33 80
6 11/11/2022 18:14:58 -0.23,-128.34 0.49,-131.46 355.88 80
7 11/12/2022 17:56:59 -0.23,-128.33 -0.62,-126.46 212.31 80
8 11/14/2022 06:15:59 0.22,-128.32 -0.39,-131.06 312.07 80
9 11/15/2022 05:52:40 0.22,-128.30 0.73,-126.06 255.19 80
10 11/16/2022 18:11:31 -0.21,-128.26 0.31,-130.62 268.29 80
11 11/17/2022 17:53:31 -0.21,-128.25 -0.80,-125.62 299.48 80
